contact:dominique.lefevre@mio.osupytheas.fr, maurice.libes@osupytheas.fr, didier.mallarino@osupytheas.fr
Project:EMSO http://www.emso-fr.org/EMSO-France
Depth: 2436.0 m
Title:EMSO Ligure Ouest : Data MII capteur AQUADOPP
Date,Latitude,Longitude,X_East,Y_North,Z_Up,Amplitude_X,Amplitude_Y,Amplitude_Z,Batterie,SoundSpeed,Heading,Pitch,Roll,Pressure,TIS,Speed,Direction
, degrees North, degrees East, m.s-1, m.s-1,m.s-1, 1, 1, 1, Volt, m.s-1, degree, degree, degree, dbar, degree_C, m.s-1, degree
2023-06-23T00:04:03,42.805,6.029,-0.036,0.007,-0.012,101.0,102.0,101.0,13.4,1505.2,335.2,-0.8,1.8,2471.611,13.28,0.036,281.0
2023-06-23T00:07:03,42.805,6.029,-0.033,-0.007,-0.055,101.0,102.0,102.0,13.4,1505.2,348.6,-0.8,1.8,2471.6,13.29,0.033,258.0
2023-06-23T00:10:03,42.805,6.029,-0.016,0.018,-0.002,101.0,102.0,101.0,13.3,1505.2,320.1,-0.8,1.8,2471.565,13.29,0.024,318.4
2023-06-23T00:13:03,42.805,6.029,-0.036,0.026,0.002,102.0,102.0,101.0,13.4,1505.2,327.8,-0.7,1.8,2471.559,13.29,0.044,305.8
2023-06-23T00:16:03,42.805,6.029,-0.032,-0.02,-0.05,102.0,101.0,101.0,13.4,1505.2,331.2,-0.7,1.8,2471.601,13.29,0.037,238.0
2023-06-23T00:19:03,42.805,6.029,-0.022,0.011,-0.025,103.0,102.0,100.0,13.4,1505.2,340.1,-0.8,1.8,2471.558,13.29,0.024,296.6
2023-06-23T00:22:03,42.805,6.029,-0.01,-0.001,-0.013,101.0,101.0,101.0,13.4,1505.2,346.5,-0.7,1.8,2471.577,13.29,0.01,264.3
2023-06-23T00:25:03,42.805,6.029,-0.031,0.013,-0.049,101.0,103.0,101.0,13.4,1505.2,339.3,-0.8,1.8,2471.602,13.29,0.033,292.7
2023-06-23T00:28:03,42.805,6.029,-0.01,-0.004,-0.019,102.0,101.0,101.0,13.3,1505.2,319.8,-0.8,1.8,2471.547,13.29,0.01,248.2
2023-06-23T00:31:03,42.805,6.029,-0.045,0.014,-0.011,103.0,101.0,101.0,13.4,1505.2,327.6,-0.8,1.8,2471.562,13.29,0.047,287.3
2023-06-23T00:34:03,42.805,6.029,-0.014,-0.016,-0.034,103.0,101.0,101.0,13.3,1505.2,327.1,-0.8,1.8,2471.551,13.29,0.021,221.2
2023-06-23T00:37:03,42.805,6.029,-0.022,0.008,-0.043,102.0,101.0,102.0,13.3,1505.2,349.1,-0.8,1.8,2471.557,13.29,0.023,290.0
2023-06-23T00:40:03,42.805,6.029,-0.034,-0.012,-0.042,101.0,102.0,102.0,13.3,1505.2,320.5,-0.8,1.8,2471.556,13.29,0.036,250.6
2023-06-23T00:43:03,42.805,6.029,-0.028,0.001,-0.036,103.0,102.0,101.0,13.4,1505.2,325.4,-0.8,1.8,2471.512,13.29,0.028,272.0
2023-06-23T00:46:03,42.805,6.029,-0.008,-0.005,-0.04,103.0,100.0,102.0,13.4,1505.2,330.1,-0.8,1.8,2471.518,13.29,0.009,238.0
2023-06-23T00:49:03,42.805,6.029,-0.003,0.012,0.011,102.0,102.0,101.0,13.4,1505.2,320.7,-0.7,1.8,2471.52,13.29,0.012,346.0
2023-06-23T00:52:03,42.805,6.029,-0.021,0.0,-0.061,102.0,103.0,101.0,13.4,1505.2,328.5,-0.8,1.8,2471.513,13.29,0.021,270.0
2023-06-23T00:55:03,42.805,6.029,-0.006,0.0,-0.001,102.0,103.0,101.0,13.4,1505.2,334.8,-0.8,1.8,2471.531,13.29,0.006,270.0
2023-06-23T00:58:03,42.805,6.029,-0.007,0.025,0.001,102.0,101.0,101.0,13.4,1505.2,348.2,-0.8,1.8,2471.506,13.29,0.025,344.4
2023-06-23T01:04:03,42.805,6.029,-0.028,0.012,-0.003,102.0,103.0,102.0,13.4,1505.2,332.9,-0.8,1.8,2471.575,13.28,0.03,293.2
2023-06-23T01:07:03,42.805,6.029,-0.059,0.024,-0.023,102.0,102.0,102.0,13.4,1505.2,332.3,-0.8,1.8,2471.544,13.29,0.063,292.1
2023-06-23T01:10:03,42.805,6.029,-0.026,0.041,-0.023,102.0,101.0,102.0,13.4,1505.2,352.0,-0.8,1.8,2471.575,13.29,0.048,327.6
2023-06-23T01:13:03,42.805,6.029,-0.029,0.015,-0.02,103.0,101.0,101.0,13.4,1505.2,333.9,-0.8,1.8,2471.49,13.29,0.032,297.4
2023-06-23T01:16:03,42.805,6.029,-0.04,0.0,-0.003,103.0,100.0,101.0,13.4,1505.2,344.2,-0.7,1.8,2471.49,13.29,0.04,270.0
2023-06-23T01:19:03,42.805,6.029,-0.02,-0.014,-0.061,102.0,101.0,101.0,13.4,1505.2,334.5,-0.8,1.8,2471.537,13.29,0.024,235.0
2023-06-23T01:22:03,42.805,6.029,-0.031,0.016,-0.024,102.0,102.0,101.0,13.4,1505.2,340.8,-0.7,1.8,2471.544,13.29,0.034,297.3
2023-06-23T01:25:03,42.805,6.029,-0.024,0.003,-0.025,102.0,102.0,101.0,13.3,1505.2,343.0,-0.8,1.8,2471.497,13.29,0.024,277.1
2023-06-23T01:28:03,42.805,6.029,-0.063,0.034,-0.023,102.0,102.0,101.0,13.3,1505.2,343.7,-0.7,1.8,2471.539,13.29,0.071,298.4
2023-06-23T01:31:03,42.805,6.029,-0.038,0.009,-0.017,102.0,102.0,101.0,13.4,1505.2,328.5,-0.8,1.8,2471.529,13.29,0.039,283.3
2023-06-23T01:34:03,42.805,6.029,-0.026,-0.002,-0.048,102.0,102.0,101.0,13.4,1505.2,338.9,-0.8,1.8,2471.496,13.29,0.026,265.6
2023-06-23T01:37:03,42.805,6.029,-0.029,0.009,-0.018,102.0,101.0,100.0,13.4,1505.2,327.9,-0.8,1.8,2471.508,13.29,0.03,287.2
2023-06-23T01:40:03,42.805,6.029,-0.029,0.0,-0.017,102.0,102.0,101.0,13.3,1505.2,325.5,-0.8,1.8,2471.516,13.29,0.028,270.0
2023-06-23T01:43:03,42.805,6.029,-0.029,0.025,-0.021,102.0,102.0,101.0,13.4,1505.2,322.3,-0.8,1.8,2471.531,13.29,0.038,310.8
2023-06-23T01:46:03,42.805,6.029,-0.017,0.004,-0.053,102.0,102.0,101.0,13.3,1505.2,341.5,-0.8,1.8,2471.522,13.29,0.017,283.2
2023-06-23T01:49:03,42.805,6.029,-0.018,-0.001,-0.024,102.0,101.0,101.0,13.4,1505.2,330.8,-0.7,1.8,2471.503,13.29,0.018,266.8
2023-06-23T01:52:03,42.805,6.029,-0.018,0.008,0.007,104.0,102.0,101.0,13.4,1505.2,340.8,-0.8,1.9,2471.542,13.29,0.019,294.0
2023-06-23T01:55:03,42.805,6.029,-0.026,0.012,-0.017,103.0,102.0,100.0,13.3,1505.2,344.3,-0.7,1.8,2471.503,13.29,0.028,294.8
2023-06-23T01:58:03,42.805,6.029,-0.014,0.022,-0.028,103.0,100.0,101.0,13.3,1505.2,347.0,-0.8,1.8,2471.492,13.29,0.026,327.5
2023-06-23T02:04:03,42.805,6.029,-0.031,0.008,-0.031,101.0,102.0,100.0,13.4,1505.2,341.2,-0.8,1.8,2471.536,13.28,0.032,284.5
2023-06-23T02:07:03,42.805,6.029,-0.048,0.029,-0.017,102.0,102.0,101.0,13.4,1505.2,343.5,-0.8,1.8,2471.533,13.28,0.056,301.1
2023-06-23T02:10:03,42.805,6.029,-0.005,-0.009,-0.011,104.0,100.0,101.0,13.3,1505.2,339.8,-0.8,1.8,2471.496,13.29,0.01,209.1
2023-06-23T02:13:03,42.805,6.029,-0.047,0.019,-0.018,103.0,102.0,101.0,13.3,1505.2,338.2,-0.8,1.8,2471.512,13.29,0.05,292.0
2023-06-23T02:16:03,42.805,6.029,-0.039,-0.007,-0.017,103.0,102.0,101.0,13.4,1505.2,335.8,-0.8,1.8,2471.522,13.29,0.039,259.8
2023-06-23T02:19:03,42.805,6.029,-0.026,0.023,-0.038,101.0,104.0,102.0,13.3,1505.2,342.3,-0.8,1.8,2471.549,13.29,0.034,311.5
2023-06-23T02:22:03,42.805,6.029,-0.031,0.007,-0.025,102.0,101.0,101.0,13.4,1505.2,321.4,-0.8,1.8,2471.456,13.29,0.031,282.7
2023-06-23T02:25:03,42.805,6.029,-0.045,0.01,-0.034,101.0,103.0,101.0,13.4,1505.2,339.7,-0.8,1.8,2471.491,13.29,0.046,282.5
2023-06-23T02:28:03,42.805,6.029,-0.044,0.018,-0.041,103.0,103.0,100.0,13.4,1505.2,340.9,-0.8,1.8,2471.477,13.29,0.047,292.2
2023-06-23T02:31:03,42.805,6.029,-0.05,-0.002,-0.038,101.0,101.0,101.0,13.3,1505.2,326.0,-0.8,1.8,2471.485,13.29,0.05,267.7
2023-06-23T02:34:03,42.805,6.029,-0.017,0.017,-0.022,102.0,101.0,101.0,13.3,1505.2,346.5,-0.8,1.8,2471.505,13.29,0.024,315.0
2023-06-23T02:37:03,42.805,6.029,-0.025,-0.015,-0.04,103.0,102.0,102.0,13.4,1505.2,323.7,-0.8,1.8,2471.479,13.29,0.029,239.0
2023-06-23T02:40:03,42.805,6.029,-0.023,-0.001,-0.044,103.0,102.0,101.0,13.4,1505.2,330.8,-0.8,1.8,2471.448,13.29,0.023,267.5
2023-06-23T02:43:03,42.805,6.029,-0.032,-0.012,-0.055,102.0,102.0,101.0,13.4,1505.2,327.1,-0.8,1.8,2471.465,13.29,0.034,249.4
2023-06-23T02:46:03,42.805,6.029,-0.02,0.012,-0.03,102.0,101.0,101.0,13.4,1505.2,345.4,-0.8,1.8,2471.476,13.29,0.023,301.0
2023-06-23T02:49:03,42.805,6.029,-0.038,0.027,-0.02,102.0,102.0,101.0,13.4,1505.2,331.6,-0.8,1.8,2471.435,13.29,0.046,305.4
2023-06-23T02:52:03,42.805,6.029,-0.034,0.012,-0.034,102.0,101.0,102.0,13.3,1505.2,331.2,-0.8,1.8,2471.479,13.29,0.036,289.4
2023-06-23T02:55:03,42.805,6.029,-0.057,0.01,-0.033,102.0,102.0,101.0,13.4,1505.2,334.2,-0.8,1.8,2471.508,13.29,0.057,279.9
2023-06-23T02:58:03,42.805,6.029,-0.027,0.003,-0.067,101.0,103.0,101.0,13.4,1505.2,339.4,-0.8,1.8,2471.495,13.29,0.027,276.3
2023-06-23T03:04:03,42.805,6.029,-0.034,-0.001,-0.059,102.0,102.0,102.0,13.4,1505.2,348.2,-0.8,1.8,2471.498,13.28,0.034,268.3
2023-06-23T03:07:03,42.805,6.029,-0.022,0.008,0.001,103.0,102.0,101.0,13.4,1505.2,323.1,-0.8,1.8,2471.505,13.29,0.023,290.0
2023-06-23T03:10:03,42.805,6.029,-0.023,0.011,-0.018,102.0,102.0,101.0,13.4,1505.2,341.9,-0.8,1.8,2471.515,13.29,0.025,295.6
2023-06-23T03:13:03,42.805,6.029,-0.034,0.004,-0.021,102.0,101.0,102.0,13.4,1505.2,348.6,-0.8,1.8,2471.477,13.29,0.034,276.7
2023-06-23T03:16:03,42.805,6.029,-0.024,0.03,0.014,103.0,103.0,101.0,13.4,1505.2,330.7,-0.8,1.8,2471.493,13.29,0.038,321.3
2023-06-23T03:19:03,42.805,6.029,-0.021,0.003,-0.023,103.0,102.0,101.0,13.3,1505.2,337.7,-0.8,1.8,2471.526,13.29,0.021,278.1
2023-06-23T03:22:03,42.805,6.029,-0.019,0.012,0.01,104.0,101.0,100.0,13.4,1505.2,325.7,-0.8,1.8,2471.466,13.29,0.022,302.3
2023-06-23T03:25:03,42.805,6.029,-0.005,0.014,0.002,102.0,103.0,101.0,13.4,1505.2,349.3,-0.8,1.8,2471.458,13.29,0.014,340.4
2023-06-23T03:28:03,42.805,6.029,-0.019,-0.006,-0.025,100.0,101.0,102.0,13.3,1505.2,329.5,-0.8,1.8,2471.46,13.29,0.019,252.5
2023-06-23T03:31:03,42.805,6.029,-0.022,0.014,0.0,104.0,101.0,101.0,13.3,1505.2,349.7,-0.7,1.8,2471.401,13.29,0.026,302.5
2023-06-23T03:34:03,42.805,6.029,-0.007,-0.011,-0.045,101.0,103.0,101.0,13.4,1505.2,340.4,-0.8,1.9,2471.479,13.29,0.013,212.5
2023-06-23T03:37:03,42.805,6.029,-0.024,-0.008,-0.011,102.0,101.0,102.0,13.4,1505.2,331.3,-0.8,1.8,2471.454,13.29,0.025,251.6
2023-06-23T03:40:03,42.805,6.029,-0.043,0.005,-0.025,103.0,101.0,101.0,13.3,1505.2,346.7,-0.7,1.8,2471.421,13.29,0.043,276.6
2023-06-23T03:43:03,42.805,6.029,-0.05,-0.001,-0.045,101.0,102.0,101.0,13.4,1505.2,327.9,-0.8,1.8,2471.443,13.29,0.05,268.9
2023-06-23T03:46:03,42.805,6.029,-0.029,-0.001,-0.024,103.0,100.0,102.0,13.4,1505.2,334.9,-0.7,1.8,2471.433,13.29,0.029,268.0
2023-06-23T03:49:03,42.805,6.029,-0.021,0.009,-0.025,104.0,103.0,101.0,13.3,1505.2,336.1,-0.8,1.8,2471.447,13.29,0.022,293.2
2023-06-23T03:52:03,42.805,6.029,-0.013,0.019,-0.024,101.0,102.0,100.0,13.3,1505.2,320.7,-0.8,1.8,2471.447,13.29,0.023,325.6
2023-06-23T03:55:03,42.805,6.029,-0.008,-0.006,-0.04,102.0,102.0,101.0,13.4,1505.2,341.1,-0.8,1.8,2471.471,13.29,0.01,233.1
2023-06-23T03:58:03,42.805,6.029,-0.029,0.019,-0.018,102.0,102.0,102.0,13.4,1505.2,340.9,-0.7,1.8,2471.433,13.29,0.034,303.2
2023-06-23T04:04:03,42.805,6.029,-0.011,0.024,0.0,102.0,102.0,101.0,13.4,1505.2,335.7,-0.8,1.8,2471.495,13.28,0.026,335.4
2023-06-23T04:07:03,42.805,6.029,0.0,-0.008,-0.03,103.0,103.0,101.0,13.4,1505.2,324.7,-0.8,1.8,2471.459,13.29,0.008,180.0
2023-06-23T04:10:03,42.805,6.029,-0.04,0.012,-0.032,103.0,101.0,104.0,13.4,1505.2,332.4,-0.7,1.8,2471.465,13.29,0.041,286.7
2023-06-23T04:13:03,42.805,6.029,-0.041,0.007,-0.027,102.0,102.0,102.0,13.4,1505.2,330.2,-0.8,1.8,2471.447,13.29,0.041,279.7
2023-06-23T04:16:03,42.805,6.029,-0.014,-0.008,-0.028,103.0,101.0,101.0,13.4,1505.2,344.4,-0.8,1.8,2471.476,13.29,0.016,240.3
2023-06-23T04:19:03,42.805,6.029,-0.01,0.001,-0.025,102.0,101.0,101.0,13.4,1505.2,340.4,-0.8,1.8,2471.437,13.29,0.01,275.7
2023-06-23T04:22:03,42.805,6.029,-0.029,0.01,-0.007,103.0,101.0,101.0,13.4,1505.2,337.6,-0.8,1.8,2471.425,13.29,0.03,289.0
2023-06-23T04:25:03,42.805,6.029,-0.004,-0.007,-0.01,102.0,102.0,101.0,13.4,1505.2,340.5,-0.8,1.8,2471.459,13.29,0.008,209.7
2023-06-23T04:28:03,42.805,6.029,-0.007,0.009,0.008,101.0,102.0,101.0,13.4,1505.2,347.3,-0.7,1.8,2471.46,13.29,0.011,322.1
2023-06-23T04:31:03,42.805,6.029,-0.031,0.001,-0.014,101.0,102.0,102.0,13.4,1505.2,341.2,-0.8,1.8,2471.436,13.29,0.031,271.8
2023-06-23T04:34:03,42.805,6.029,-0.013,0.004,-0.055,101.0,102.0,101.0,13.4,1505.2,331.2,-0.8,1.8,2471.441,13.29,0.013,287.1
2023-06-23T04:37:03,42.805,6.029,-0.013,-0.004,-0.026,102.0,102.0,101.0,13.3,1505.2,344.4,-0.8,1.8,2471.457,13.29,0.013,252.9
2023-06-23T04:40:03,42.805,6.029,-0.03,0.005,-0.033,101.0,101.0,102.0,13.4,1505.2,325.7,-0.8,1.8,2471.427,13.29,0.03,279.5
2023-06-23T04:43:03,42.805,6.029,-0.005,-0.004,-0.026,102.0,102.0,101.0,13.4,1505.2,341.1,-0.8,1.8,2471.422,13.29,0.006,231.3
2023-06-23T04:46:03,42.805,6.029,-0.03,0.015,-0.015,101.0,102.0,101.0,13.4,1505.2,337.8,-0.7,1.8,2471.427,13.29,0.033,296.6
2023-06-23T04:49:03,42.805,6.029,-0.01,-0.002,-0.016,101.0,102.0,101.0,13.4,1505.2,331.8,-0.8,1.8,2471.414,13.29,0.01,258.7
2023-06-23T04:52:03,42.805,6.029,-0.011,0.007,-0.018,100.0,103.0,101.0,13.4,1505.2,334.9,-0.8,1.8,2471.434,13.29,0.013,302.5
2023-06-23T04:55:03,42.805,6.029,-0.02,0.004,-0.009,102.0,101.0,101.0,13.4,1505.2,330.1,-0.8,1.8,2471.416,13.29,0.02,281.3
2023-06-23T04:58:03,42.805,6.029,-0.027,-0.003,-0.036,101.0,102.0,103.0,13.4,1505.2,336.3,-0.8,1.8,2471.422,13.29,0.027,263.7
2023-06-23T05:04:03,42.805,6.029,-0.013,0.004,-0.015,102.0,102.0,101.0,13.4,1505.2,349.3,-0.8,1.8,2471.458,13.29,0.013,287.1
2023-06-23T05:07:03,42.805,6.029,-0.02,0.005,-0.019,102.0,102.0,101.0,13.3,1505.2,344.0,-0.8,1.8,2471.465,13.29,0.02,284.0
2023-06-23T05:10:03,42.805,6.029,-0.018,0.01,-0.021,102.0,101.0,102.0,13.3,1505.2,337.7,-0.8,1.8,2471.45,13.29,0.02,299.1
2023-06-23T05:13:03,42.805,6.029,-0.026,-0.007,-0.039,101.0,101.0,102.0,13.3,1505.2,330.6,-0.8,1.8,2471.448,13.29,0.026,254.9
2023-06-23T05:16:03,42.805,6.029,-0.003,0.009,-0.025,103.0,100.0,101.0,13.4,1505.2,328.1,-0.8,1.8,2471.436,13.29,0.009,341.6
2023-06-23T05:19:03,42.805,6.029,-0.017,0.004,-0.026,103.0,101.0,101.0,13.3,1505.2,334.2,-0.8,1.8,2471.41,13.29,0.017,283.2
2023-06-23T05:22:03,42.805,6.029,-0.023,-0.013,-0.028,101.0,102.0,101.0,13.4,1505.2,330.0,-0.8,1.8,2471.416,13.29,0.026,240.5
2023-06-23T05:25:03,42.805,6.029,-0.016,-0.015,-0.051,102.0,102.0,101.0,13.3,1505.2,326.3,-0.8,1.8,2471.46,13.29,0.021,226.9
2023-06-23T05:28:03,42.805,6.029,-0.011,-0.005,-0.038,101.0,102.0,103.0,13.4,1505.2,347.5,-0.8,1.8,2471.482,13.29,0.012,245.6
2023-06-23T05:31:03,42.805,6.029,-0.011,-0.013,-0.029,102.0,100.0,101.0,13.4,1505.2,330.2,-0.7,1.8,2471.407,13.29,0.017,220.2
2023-06-23T05:34:03,42.805,6.029,-0.024,-0.007,-0.041,102.0,102.0,101.0,13.4,1505.2,335.6,-0.8,1.8,2471.42,13.29,0.025,253.7
2023-06-23T05:37:03,42.805,6.029,-0.023,0.005,-0.032,102.0,101.0,101.0,13.4,1505.2,320.1,-0.8,1.8,2471.365,13.29,0.023,282.3
2023-06-23T05:40:03,42.805,6.029,-0.035,0.005,-0.044,102.0,103.0,101.0,13.3,1505.2,340.4,-0.8,1.8,2471.432,13.29,0.035,278.1
2023-06-23T05:43:03,42.805,6.029,-0.006,-0.016,-0.016,103.0,101.0,101.0,13.4,1505.2,336.5,-0.8,1.8,2471.384,13.29,0.017,200.6
2023-06-23T05:46:03,42.805,6.029,0.002,-0.001,-0.017,102.0,102.0,102.0,13.4,1505.2,341.9,-0.8,1.8,2471.407,13.29,0.002,116.6
2023-06-23T05:49:03,42.805,6.029,-0.013,0.001,-0.015,101.0,102.0,101.0,13.4,1505.2,346.7,-0.7,1.8,2471.407,13.29,0.013,274.4
2023-06-23T05:52:03,42.805,6.029,-0.055,0.009,-0.031,102.0,102.0,101.0,13.3,1505.2,332.1,-0.8,1.8,2471.414,13.29,0.055,279.3
2023-06-23T05:55:03,42.805,6.029,-0.01,-0.01,-0.008,103.0,102.0,101.0,13.3,1505.2,337.2,-0.7,1.8,2471.415,13.29,0.014,225.0
2023-06-23T05:58:03,42.805,6.029,-0.014,-0.006,-0.022,102.0,102.0,101.0,13.4,1505.2,320.7,-0.7,1.8,2471.411,13.29,0.015,246.8
2023-06-23T06:04:03,42.805,6.029,-0.033,0.016,-0.003,102.0,102.0,101.0,13.4,1505.2,335.9,-0.8,1.8,2471.505,13.28,0.036,295.9
2023-06-23T06:07:03,42.805,6.029,-0.022,-0.006,-0.044,102.0,103.0,101.0,13.3,1505.2,330.8,-0.8,1.8,2471.474,13.29,0.022,254.7
2023-06-23T06:10:03,42.805,6.029,-0.002,-0.005,-0.034,102.0,102.0,101.0,13.4,1505.2,341.5,-0.8,1.8,2471.457,13.29,0.005,201.8
2023-06-23T06:13:03,42.805,6.029,-0.006,0.015,-0.02,103.0,102.0,102.0,13.3,1505.2,322.7,-0.7,1.8,2471.461,13.29,0.016,338.2
2023-06-23T06:16:03,42.805,6.029,-0.005,-0.021,-0.079,102.0,101.0,101.0,13.4,1505.2,335.3,-0.8,1.8,2471.419,13.29,0.021,193.4
2023-06-23T06:19:03,42.805,6.029,0.0,0.015,-0.018,102.0,102.0,101.0,13.3,1505.2,349.3,-0.8,1.8,2471.439,13.29,0.015,0.0
2023-06-23T06:22:03,42.805,6.029,-0.018,-0.003,-0.028,102.0,102.0,102.0,13.4,1505.2,333.0,-0.8,1.8,2471.416,13.29,0.018,260.5
2023-06-23T06:25:03,42.805,6.029,-0.002,-0.004,-0.01,102.0,101.0,102.0,13.4,1505.2,336.1,-0.8,1.8,2471.428,13.29,0.004,206.6
2023-06-23T06:28:03,42.805,6.029,-0.017,-0.006,-0.047,101.0,102.0,102.0,13.4,1505.2,346.7,-0.8,1.8,2471.423,13.29,0.018,250.6
2023-06-23T06:31:03,42.805,6.029,-0.007,-0.012,-0.04,102.0,102.0,101.0,13.3,1505.2,326.9,-0.7,1.8,2471.4,13.29,0.013,210.3
2023-06-23T06:34:03,42.805,6.029,-0.016,0.018,-0.029,101.0,102.0,102.0,13.3,1505.2,348.2,-0.8,1.8,2471.427,13.29,0.024,318.4
2023-06-23T06:37:03,42.805,6.029,-0.03,0.0,-0.038,102.0,101.0,102.0,13.4,1505.2,330.2,-0.8,1.9,2471.452,13.29,0.03,270.0
2023-06-23T06:40:03,42.805,6.029,-0.006,0.013,-0.033,103.0,101.0,102.0,13.3,1505.2,347.5,-0.7,1.8,2471.438,13.29,0.014,335.2
2023-06-23T06:43:03,42.805,6.029,-0.023,-0.002,-0.042,103.0,100.0,102.0,13.4,1505.2,328.6,-0.8,1.8,2471.417,13.29,0.023,265.0
2023-06-23T06:46:03,42.805,6.029,-0.013,-0.006,-0.027,102.0,102.0,101.0,13.3,1505.2,340.7,-0.7,1.8,2471.437,13.29,0.014,245.2
2023-06-23T06:49:03,42.805,6.029,-0.035,0.0,-0.048,103.0,101.0,100.0,13.3,1505.2,325.4,-0.8,1.8,2471.43,13.29,0.035,270.0
2023-06-23T06:52:03,42.805,6.029,-0.038,0.016,-0.012,102.0,102.0,101.0,13.4,1505.2,344.2,-0.8,1.8,2471.41,13.29,0.041,292.8
2023-06-23T06:55:03,42.805,6.029,-0.015,0.002,-0.013,102.0,102.0,101.0,13.4,1505.2,328.4,-0.8,1.8,2471.438,13.29,0.015,277.6
2023-06-23T06:58:03,42.805,6.029,-0.008,-0.009,-0.016,102.0,102.0,101.0,13.4,1505.2,339.4,-0.8,1.8,2471.447,13.29,0.012,221.6
2023-06-23T07:04:03,42.805,6.029,-0.034,0.01,-0.048,102.0,102.0,102.0,13.3,1505.2,336.6,-0.8,1.8,2471.468,13.29,0.035,286.4
2023-06-23T07:07:03,42.805,6.029,-0.013,-0.01,-0.044,103.0,102.0,101.0,13.4,1505.2,331.2,-0.7,1.8,2471.445,13.29,0.016,232.4
2023-06-23T07:10:03,42.805,6.029,-0.031,0.027,-0.024,104.0,101.0,102.0,13.3,1505.2,337.8,-0.8,1.8,2471.478,13.29,0.041,311.1
2023-06-23T07:13:03,42.805,6.029,-0.049,0.016,-0.017,102.0,102.0,101.0,13.4,1505.2,334.2,-0.7,1.8,2471.477,13.29,0.051,288.1
2023-06-23T07:16:03,42.805,6.029,-0.007,-0.02,-0.044,103.0,102.0,101.0,13.4,1505.2,338.7,-0.8,1.8,2471.444,13.29,0.021,199.3
2023-06-23T07:19:03,42.805,6.029,-0.018,0.007,-0.04,101.0,102.0,102.0,13.4,1505.2,328.6,-0.8,1.8,2471.452,13.29,0.019,291.2
2023-06-23T07:22:03,42.805,6.029,-0.045,0.007,-0.033,104.0,102.0,102.0,13.4,1505.2,327.9,-0.8,1.8,2471.469,13.29,0.045,278.8
2023-06-23T07:25:03,42.805,6.029,0.003,-0.019,-0.036,103.0,101.0,101.0,13.4,1505.2,350.1,-0.7,1.8,2471.425,13.29,0.019,171.0
2023-06-23T07:28:03,42.805,6.029,-0.019,0.012,0.006,103.0,101.0,101.0,13.3,1505.2,327.2,-0.8,1.8,2471.448,13.29,0.022,302.3
2023-06-23T07:31:03,42.805,6.029,-0.006,0.003,-0.009,102.0,102.0,103.0,13.3,1505.2,326.5,-0.8,1.8,2471.434,13.29,0.006,296.6
2023-06-23T07:34:03,42.805,6.029,-0.007,-0.016,-0.034,101.0,103.0,101.0,13.4,1505.2,345.9,-0.8,1.8,2471.483,13.29,0.017,203.6
2023-06-23T07:37:03,42.805,6.029,0.0,-0.021,-0.009,103.0,103.0,101.0,13.3,1505.2,321.7,-0.7,1.8,2471.414,13.29,0.021,180.0
2023-06-23T07:40:03,42.805,6.029,-0.018,0.004,-0.04,102.0,101.0,101.0,13.4,1505.2,340.7,-0.8,1.8,2471.437,13.29,0.018,282.5
2023-06-23T07:43:03,42.805,6.029,-0.006,-0.009,-0.037,103.0,101.0,101.0,13.4,1505.2,327.6,-0.8,1.8,2471.406,13.29,0.01,213.7
2023-06-23T07:46:03,42.805,6.029,-0.015,0.013,-0.028,104.0,101.0,101.0,13.4,1505.2,339.5,-0.7,1.8,2471.454,13.29,0.019,310.9
2023-06-23T07:49:03,42.805,6.029,-0.021,-0.01,-0.049,104.0,102.0,101.0,13.4,1505.2,326.0,-0.8,1.8,2471.45,13.29,0.023,244.5
2023-06-23T07:52:03,42.805,6.029,-0.02,0.006,-0.002,101.0,104.0,101.0,13.4,1505.2,324.3,-0.8,1.8,2471.477,13.29,0.02,286.7
2023-06-23T07:55:03,42.805,6.029,-0.01,-0.008,0.0,103.0,102.0,101.0,13.3,1505.2,333.4,-0.8,1.8,2471.474,13.29,0.012,231.3
2023-06-23T07:58:03,42.805,6.029,-0.013,0.001,-0.018,104.0,101.0,101.0,13.3,1505.2,328.5,-0.8,1.8,2471.448,13.29,0.013,274.4
2023-06-23T08:04:03,42.805,6.029,-0.026,0.0,-0.029,103.0,102.0,101.0,13.4,1505.2,338.6,-0.8,1.8,2471.513,13.29,0.026,270.0
2023-06-23T08:07:03,42.805,6.029,-0.037,-0.015,-0.059,103.0,102.0,101.0,13.4,1505.2,348.9,-0.8,1.8,2471.477,13.29,0.039,247.9
2023-06-23T08:10:03,42.805,6.029,0.007,-0.009,-0.015,103.0,103.0,101.0,13.3,1505.2,329.8,-0.7,1.8,2471.493,13.29,0.011,142.1
2023-06-23T08:13:03,42.805,6.029,-0.021,-0.007,-0.018,102.0,104.0,101.0,13.4,1505.2,331.4,-0.7,1.8,2471.474,13.29,0.022,251.6
2023-06-23T08:16:03,42.805,6.029,-0.001,0.007,-0.017,103.0,102.0,102.0,13.4,1505.2,321.6,-0.8,1.8,2471.488,13.29,0.007,351.9
2023-06-23T08:19:03,42.805,6.029,-0.004,0.006,-0.027,103.0,103.0,101.0,13.3,1505.2,334.8,-0.7,1.8,2471.447,13.29,0.007,326.3
2023-06-23T08:22:03,42.805,6.029,-0.033,0.001,-0.035,103.0,102.0,102.0,13.4,1505.2,325.7,-0.8,1.8,2471.484,13.29,0.033,271.7
2023-06-23T08:25:03,42.805,6.029,-0.033,0.015,-0.032,102.0,101.0,102.0,13.4,1505.2,320.4,-0.8,1.8,2471.431,13.29,0.036,294.4
2023-06-23T08:28:03,42.805,6.029,-0.007,0.002,-0.037,103.0,103.0,101.0,13.4,1505.2,343.0,-0.8,1.8,2471.48,13.29,0.007,285.9
2023-06-23T08:31:03,42.805,6.029,-0.035,-0.009,-0.053,103.0,101.0,102.0,13.4,1505.2,337.8,-0.8,1.8,2471.421,13.29,0.036,255.6
2023-06-23T08:34:03,42.805,6.029,-0.034,0.019,-0.029,102.0,102.0,101.0,13.3,1505.2,338.8,-0.7,1.8,2471.472,13.29,0.038,299.2
2023-06-23T08:37:03,42.805,6.029,-0.04,-0.007,-0.075,103.0,102.0,102.0,13.3,1505.2,350.9,-0.7,1.8,2471.457,13.29,0.04,260.1
2023-06-23T08:40:03,42.805,6.029,-0.023,-0.001,-0.02,103.0,102.0,101.0,13.4,1505.2,331.7,-0.7,1.8,2471.466,13.29,0.023,267.5
2023-06-23T08:43:03,42.805,6.029,-0.024,-0.009,-0.034,104.0,103.0,101.0,13.4,1505.2,337.1,-0.8,1.8,2471.459,13.29,0.025,249.4
2023-06-23T08:46:03,42.805,6.029,-0.015,0.014,-0.028,102.0,102.0,101.0,13.4,1505.2,322.9,-0.8,1.8,2471.472,13.29,0.02,313.0
2023-06-23T08:49:03,42.805,6.029,-0.018,-0.011,-0.04,103.0,101.0,103.0,13.4,1505.2,327.2,-0.8,1.8,2471.449,13.29,0.021,238.6
2023-06-23T08:52:03,42.805,6.029,-0.009,0.005,-0.011,103.0,102.0,102.0,13.3,1505.2,347.9,-0.8,1.8,2471.452,13.29,0.01,299.1
2023-06-23T08:55:03,42.805,6.029,-0.004,-0.006,-0.035,103.0,102.0,101.0,13.4,1505.2,330.4,-0.8,1.8,2471.473,13.29,0.007,213.7
2023-06-23T08:58:03,42.805,6.029,-0.043,-0.003,-0.063,102.0,101.0,103.0,13.4,1505.2,340.7,-0.8,1.8,2471.453,13.29,0.043,266.0
2023-06-23T09:04:03,42.805,6.029,-0.008,0.019,-0.041,103.0,102.0,101.0,13.4,1505.2,342.3,-0.8,1.8,2471.492,13.29,0.02,337.2
2023-06-23T09:07:03,42.805,6.029,-0.024,-0.002,-0.016,103.0,102.0,102.0,13.4,1505.2,342.3,-0.8,1.8,2471.511,13.29,0.024,265.2
2023-06-23T09:10:03,42.805,6.029,-0.033,0.023,-0.001,101.0,103.0,101.0,13.4,1505.2,320.1,-0.8,1.8,2471.517,13.29,0.04,304.9
2023-06-23T09:13:03,42.805,6.029,-0.009,-0.015,0.009,103.0,103.0,103.0,13.4,1505.2,341.9,-0.7,1.8,2471.502,13.29,0.017,211.0
2023-06-23T09:16:03,42.805,6.029,-0.016,0.004,-0.041,102.0,101.0,102.0,13.3,1505.2,345.2,-0.8,1.8,2471.523,13.29,0.016,284.0
2023-06-23T09:19:03,42.805,6.029,0.006,-0.024,-0.008,102.0,102.0,101.0,13.3,1505.2,333.4,-0.8,1.8,2471.485,13.29,0.024,166.0
2023-06-23T09:22:03,42.805,6.029,-0.03,-0.005,-0.026,102.0,103.0,102.0,13.4,1505.2,326.0,-0.8,1.8,2471.501,13.29,0.03,260.5
2023-06-23T09:25:03,42.805,6.029,-0.027,0.031,0.012,103.0,101.0,101.0,13.3,1505.2,325.0,-0.8,1.8,2471.478,13.29,0.041,318.9
2023-06-23T09:28:03,42.805,6.029,-0.028,0.008,-0.012,103.0,102.0,102.0,13.4,1505.2,322.5,-0.8,1.8,2471.472,13.29,0.029,285.9
2023-06-23T09:31:03,42.805,6.029,-0.007,0.003,-0.032,102.0,102.0,103.0,13.4,1505.2,339.7,-0.8,1.8,2471.45,13.29,0.007,293.2
2023-06-23T09:34:03,42.805,6.029,0.0,0.003,-0.029,103.0,101.0,101.0,13.3,1505.2,331.3,-0.8,1.9,2471.508,13.29,0.003,0.0
2023-06-23T09:37:03,42.805,6.029,-0.03,0.003,-0.015,103.0,102.0,101.0,13.4,1505.2,346.7,-0.8,1.8,2471.495,13.29,0.03,275.7
2023-06-23T09:40:03,42.805,6.029,-0.028,-0.005,-0.025,103.0,102.0,101.0,13.4,1505.2,334.3,-0.8,1.8,2471.455,13.29,0.028,259.9
2023-06-23T09:43:03,42.805,6.029,0.004,-0.015,-0.019,102.0,102.0,100.0,13.4,1505.2,332.5,-0.8,1.8,2471.508,13.29,0.015,165.1
2023-06-23T09:46:03,42.805,6.029,-0.023,0.005,-0.019,102.0,101.0,101.0,13.4,1505.2,341.2,-0.8,1.8,2471.477,13.29,0.023,282.3
2023-06-23T09:49:03,42.805,6.029,-0.015,0.0,-0.04,102.0,102.0,101.0,13.4,1505.2,334.3,-0.8,1.8,2471.437,13.29,0.015,270.0
2023-06-23T09:52:03,42.805,6.029,-0.01,-0.019,-0.057,103.0,101.0,101.0,13.4,1505.2,330.8,-0.8,1.9,2471.445,13.29,0.021,207.8